This demonstration page uses our WeatherBlox Daily Observations layout. Learn more.

Left ArrowRight Arrow

39.08367, -84.50855

Hourly Observations for September 12, 2015

Temp ( °F °C ) Dew Point ( °F °C ) Humidity (%) Winds ( mph kmh ) Pressure ( in mb ) Visibility ( mi km ) Precip ( " mm )
12:26 am 00:26 Cloudy with Light Rain 61 16 61 16 100 100 NNW 8 13 29.91 1013 10 16 0.00 0.00
12:51 am 00:51 Cloudy with Light Rain 61 16 61 16 100 100 NNW 6 9 29.91 1013 5 8 0.01 0.25
12:53 am 00:53 Cloudy with Light Rain 61 16.1 60 15.6 97 97 VRB 5 7 29.89 1012 5 8 0.01 0.25
1:28 am 01:28 Cloudy 61 16 59 15 94 94 NNW 14 22 29.91 1013 7 11 0.00 0.00
1:37 am 01:37 Cloudy with Light Rain 60 15.6 59 15 96 96 NNW 13 20 29.91 1013 7 11 0.00 0.03
1:53 am 01:53 Cloudy with Light Rain 60 15.6 59 15 96 96 N 10 17 29.88 1012 7 11 0.00 0.03
2:05 am 02:05 Cloudy 60 15.6 59 15 96 96 NNE 12 19 29.88 1012 10 16 0.00 0.03
2:35 am 02:35 Cloudy 60 15.6 58 14.4 93 93 NNE 8 13 29.88 1012 10 16 0.00 0.03
2:53 am 02:53 Cloudy 60 15.6 57 13.9 90 90 N 7 11 29.88 1012 10 16 0.00 0.03
3:00 am 03:00 Cloudy 61 16 57 14 88 88 NNW 7 11 29.88 1012 10 16 0.00 0.00
3:37 am 03:37 Cloudy 59 15 57 13.9 93 93 N 7 11 29.88 1012 10 16 0.00 0.00
3:53 am 03:53 Cloudy 59 15 57 13.9 93 93 NNW 7 11 29.88 1012 10 16 0.00 0.00
4:29 am 04:29 Cloudy 60 15.6 57 13.9 90 90 N 6 9 29.88 1012 10 16 0.00 0.00
4:53 am 04:53 Cloudy 60 15.6 57 13.9 90 90 N 8 13 29.88 1012 10 16 0.00 0.00
5:53 am 05:53 Mostly Cloudy 59 15 57 13.9 93 93 N 6 9 29.89 1012 10 16 0.00 0.00
6:28 am 06:28 Cloudy 59 15 57 14 94 94 N 7 11 29.91 1013 10 16 0.00 0.00
6:53 am 06:53 Cloudy 59 15 56 13.3 90 90 N 8 13 29.89 1012 10 16 0.00 0.00
7:19 am 07:19 Cloudy 59 15 56 13.3 90 90 N 8 13 29.91 1013 10 16 0.00 0.00
7:53 am 07:53 Cloudy 59 15 56 13.3 90 90 NNW 6 9 29.91 1013 10 16 0.00 0.00
8:38 am 08:38 Cloudy 61 16 55 13 83 83 NNW 9 15 29.91 1013 10 16 0.00 0.00
8:45 am 08:45 Cloudy 60 15.6 56 13.3 86 86 N 9 15 29.91 1013 10 16 0.00 0.00
8:53 am 08:53 Cloudy 60 15.6 56 13.3 86 86 NNW 12 19 29.92 1013 10 16 0.00 0.00
9:33 am 09:33 Cloudy 60 15.6 55 12.8 84 84 NNW 9 15 29.91 1013 10 16 0.00 0.00
9:51 am 09:51 Cloudy 59 15 54 12 82 82 NNW 9 15 29.91 1013 10 16 0.00 0.00
9:53 am 09:53 Cloudy 60 15.6 55 12.8 84 84 N 9 15 29.93 1014 10 16 0.00 0.00
10:53 am 10:53 Mostly Cloudy 63 17.2 55 12.8 76 76 N 10 17 29.94 1014 10 16 0.00 0.00
11:53 am 11:53 Mostly Cloudy 63 17.2 54 12.2 73 73 NNW 9 15 29.95 1014 10 16 0.00 0.00
12:53 pm 12:53 Mostly Cloudy 64 17.8 53 11.7 68 68 NNW 10 17 29.93 1014 10 16 0.00 0.00
1:53 pm 13:53 Mostly Cloudy 65 18.3 55 12.8 70 70 NNW 9 15 29.92 1013 10 16 0.00 0.03
2:53 pm 14:53 Mostly Cloudy 65 18.3 52 11.1 63 63 N 12 19 29.90 1013 10 16 0.00 0.00
3:53 pm 15:53 Cloudy with Light Rain 60 15.6 52 11.1 75 75 N 6 9 29.91 1013 10 16 0.02 0.51
4:53 pm 16:53 Cloudy with Heavy Rain 58 14.4 54 12.2 87 87 WNW 13 20 29.91 1013 3 5 0.02 0.51
5:53 pm 17:53 Cloudy with Light Rain 57 13.9 55 12.8 93 93 Calm 29.92 1013 6 10 0.10 2.54
6:53 pm 18:53 Cloudy 57 13.9 55 12.8 93 93 Calm 29.91 1013 10 16 0.01 0.25
7:53 pm 19:53 Cloudy 56 13.3 56 13.3 100 100 Calm 29.92 1013 10 16 0.00 0.00
8:53 pm 20:53 Mostly Cloudy 56 13.3 56 13.3 100 100 Calm 29.93 1013 10 16 0.00 0.00
9:53 pm 21:53 Cloudy 58 14.4 53 11.7 84 84 VRB 3 6 29.94 1014 10 16 0.00 0.00
10:53 pm 22:53 Mostly Clear 56 13.3 52 11.1 87 87 NW 9 15 29.96 1014 10 16 0.00 0.00
11:53 pm 23:53 Clear 55 12.8 50 10 83 83 N 8 13 29.97 1015 10 16 0.00 0.00

Powered by AerisWeather